time_stamp(utc),avg(mph),gust(mph),direction(deg),12m_air_temp(f),sonic_u(cm/s),sonic_v(cm/s),sonic_w(cm/s),pressure,2m_air_temp(f),pyranometer(W/m^2)
"2020-01-29 00:00:53+00",8.4,9.4,,39.2,148,-173,327,1013.26,38.3,0
"2020-01-29 00:05:53+00",9.6,11.6,,39.2,163,-172,335,1013.25,38.4,0
"2020-01-29 00:10:53+00",10.2,12.2,,39.1,335,-497,541,1013.37,38.4,0
"2020-01-29 00:15:53+00",9.4,11.4,,39.1,327,-512,537,1013.34,38.4,0
"2020-01-29 00:20:53+00",10.0,12.0,,39.1,584,-1011,812,1013.42,38.4,0
"2020-01-29 00:25:53+00",10.1,12.1,,39,542,-904,749,1013.54,38.4,0
"2020-01-29 00:30:53+00",10.2,12.2,,39,470,-740,662,1013.55,38.3,0
"2020-01-29 00:35:53+00",10.6,12.6,,39,645,-1061,862,1013.57,38.3,0
"2020-01-29 00:40:53+00",10.5,12.5,,38.9,904,-1653,1170,1013.58,38.4,0
"2020-01-29 00:45:53+00",11.2,12.2,,38.9,1091,-1941,1355,1013.79,38.3,0
"2020-01-29 00:50:53+00",10.2,12.2,,38.8,704,-1231,931,1013.85,38.3,0
"2020-01-29 00:55:53+00",12.2,14.2,,38.8,1110,-1936,1361,1013.87,38.2,0
"2020-01-29 01:00:53+00",13.1,14.1,,38.8,911,-1597,1184,1013.93,38.2,0
"2020-01-29 01:05:53+00",14.2,16.2,,39,890,-1432,1155,1013.91,38.3,0
"2020-01-29 01:10:53+00",12.7,14.7,,38.9,416,-514,642,1013.9,38.3,0
"2020-01-29 01:15:53+00",13.1,15.1,,38.8,1063,-1833,1333,1013.96,38.3,0
"2020-01-29 01:20:53+00",13.9,15.9,,38.9,1208,-2120,1501,1014.09,38.3,0
"2020-01-29 01:25:53+00",11.4,13.4,,38.7,790,-1387,1054,1014.15,38.2,0
"2020-01-29 01:30:53+00",11.7,12.7,,38.7,758,-1306,1021,1014.16,38.2,0
"2020-01-29 01:35:53+00",11.5,14.5,,38.7,740,-1290,1014,1014.18,38.1,0
"2020-01-29 01:40:53+00",13.1,15.1,,38.7,520,-823,803,1014.27,38.1,0
"2020-01-29 01:45:53+00",13.3,16.3,,38.6,954,-1598,1215,1014.27,38.1,0
"2020-01-29 01:50:53+00",14.8,15.8,,38.6,840,-1267,1087,1014.17,38.1,0
"2020-01-29 01:55:53+00",13.5,15.5,,38.7,1023,-1734,1302,1014.32,38,0
"2020-01-29 02:00:53+00",12.5,13.5,,38.6,959,-1727,1243,1014.36,38,0
"2020-01-29 02:05:53+00",10.9,11.9,,38.4,505,-861,752,1014.41,38,0
"2020-01-29 02:10:53+00",7.6,8.6,,38.2,149,-175,312,1014.55,37.9,0
"2020-01-29 02:15:53+00",13.5,17.5,,38.5,689,-1197,995,1014.48,37.9,0
"2020-01-29 02:25:53+00",14.6,16.6,,38.7,1673,-3210,2104,1014.59,38.1,0
"2020-01-29 02:30:53+00",14.2,16.2,,38.7,1570,-2815,1871,1014.65,38.2,0
"2020-01-29 02:35:53+00",11.2,13.2,,38.6,1029,-1994,1362,1014.63,38.2,0
"2020-01-29 02:40:53+00",12.4,14.4,,38.6,1574,-3012,1931,1014.67,38.1,0
"2020-01-29 02:45:53+00",11.7,12.7,,38.6,1242,-2331,1546,1014.71,38.2,0
"2020-01-29 02:50:53+00",11.1,12.1,,38.5,1370,-2635,1711,1014.71,38.2,0
"2020-01-29 02:55:53+00",10.5,12.5,,38.5,1101,-2240,1455,1014.73,38.1,0
"2020-01-29 03:00:53+00",12.0,13.0,,38.5,1013,-1940,1348,1014.79,38.1,0
"2020-01-29 03:05:53+00",13.0,15.0,,38.5,1254,-2203,1525,1014.8,38,0
"2020-01-29 03:10:53+00",11.4,13.4,,38.4,979,-1920,1300,1014.82,37.9,0
"2020-01-29 03:15:53+00",13.3,15.3,,38.5,1593,-2861,1897,1014.83,38,0
"2020-01-29 03:20:53+00",13.1,17.1,,38.4,1278,-2526,1628,1014.76,38,0
"2020-01-29 03:25:53+00",11.4,12.4,,38.5,1168,-2224,1493,1014.87,38,0
"2020-01-29 03:30:53+00",11.0,13.0,,38.4,816,-1496,1104,1014.91,37.9,0
"2020-01-29 03:35:53+00",11.4,13.4,,38.2,614,-1089,876,1014.98,37.8,0
"2020-01-29 03:40:53+00",11.7,12.7,,38.2,1041,-1856,1311,1014.96,37.7,0
"2020-01-29 03:45:53+00",11.9,13.9,,38.2,538,-903,789,1014.94,37.6,0
"2020-01-29 03:50:53+00",12.3,14.3,,38.2,1098,-1999,1379,1014.9,37.6,0
"2020-01-29 03:55:53+00",12.1,13.1,,38.3,1042,-1901,1336,1014.88,37.7,0
"2020-01-29 04:00:53+00",11.1,12.1,,38.3,955,-1769,1240,1014.85,37.7,0
"2020-01-29 04:05:53+00",9.8,10.8,,38.3,590,-1134,862,1014.81,37.7,0
"2020-01-29 04:10:53+00",10.4,12.4,,38.2,1147,-2248,1482,1014.82,37.7,0
"2020-01-29 04:15:53+00",10.8,12.8,,38.3,1262,-2522,1634,1014.79,37.8,0
"2020-01-29 04:20:53+00",12.6,14.6,,38.2,1625,-3080,1991,1014.81,37.8,0
"2020-01-29 04:25:53+00",16.4,18.4,,38.3,1963,-3735,2431,1014.69,37.8,0
"2020-01-29 04:35:53+00",15.9,16.9,,38.2,2055,-3985,2551,1014.75,37.8,0
"2020-01-29 04:40:53+00",12.6,14.6,,38.1,1822,-3540,2215,1014.83,37.8,0
"2020-01-29 04:45:53+00",13.6,15.6,,38,1373,-2716,1773,1014.83,37.7,0
"2020-01-29 04:50:53+00",16.0,19.0,,38,1541,-2956,1922,1014.86,37.6,0
"2020-01-29 05:10:53+00",14.4,16.4,,37.8,1748,-3291,2161,1014.98,37.4,0
"2020-01-29 05:15:53+00",13.4,16.4,,37.7,1327,-2523,1738,1015.04,37.4,0
"2020-01-29 05:30:53+00",14.6,16.6,,37.7,1709,-3381,2174,1015.14,37.3,0
"2020-01-29 05:35:53+00",15.1,17.1,,37.7,1638,-3110,2026,1015.18,37.3,0
"2020-01-29 05:45:53+00",13.9,14.9,,37.5,1873,-3690,2301,1015.27,37.1,0
"2020-01-29 05:50:53+00",13.2,15.2,,37.5,1745,-3454,2164,1015.21,37.1,0
"2020-01-29 05:55:53+00",13.6,15.6,,37.5,1889,-3657,2270,1015.27,37.1,0
"2020-01-29 06:00:53+00",16.3,18.3,,37.5,1469,-2939,1956,1015.36,37.1,0
"2020-01-29 06:05:53+00",14.6,17.6,,37.4,1825,-3505,2210,1015.38,37,0
"2020-01-29 06:10:53+00",13.9,15.9,,37.4,1755,-3418,2164,1015.42,37,0
"2020-01-29 06:15:53+00",13.9,14.9,,37.4,1659,-3240,2082,1015.49,37,0
"2020-01-29 06:20:53+00",13.4,15.4,,37.4,1383,-2867,1824,1015.51,36.9,0
"2020-01-29 06:25:53+00",13.5,14.5,,37.3,1765,-3523,2199,1015.47,36.9,0
"2020-01-29 06:30:53+00",13.9,15.9,,37.4,1910,-3742,2341,1015.39,36.9,0
"2020-01-29 06:35:53+00",13.7,15.7,,37.4,1581,-3149,2007,1015.31,36.9,0
"2020-01-29 06:40:53+00",13.5,15.5,,37.3,1678,-3435,2136,1015.49,36.9,0
"2020-01-29 06:45:53+00",13.6,15.6,,37.3,1614,-3177,2028,1015.55,36.8,0
"2020-01-29 06:50:53+00",14.7,16.7,,37.3,1520,-3163,2034,1015.49,36.8,0
"2020-01-29 06:55:53+00",14.2,15.2,,37.3,1837,-3558,2272,1015.53,36.8,0
"2020-01-29 07:05:53+00",14.0,15.0,,37.3,1801,-3587,2253,1015.51,36.9,0
"2020-01-29 07:10:53+00",13.7,15.7,,37.3,1585,-3047,1978,1015.49,36.8,0
"2020-01-29 07:15:53+00",12.8,14.8,,37.3,1386,-2761,1771,1015.44,36.8,0
"2020-01-29 07:20:53+00",15.2,16.2,,37.2,1924,-3696,2359,1015.43,36.7,0
"2020-01-29 07:25:53+00",12.4,13.4,,37.2,1162,-2296,1556,1015.37,36.7,0
"2020-01-29 07:30:53+00",12.2,13.2,,37.1,1698,-3337,2081,1015.43,36.7,0
"2020-01-29 07:35:53+00",12.4,14.4,,37.1,1422,-2824,1825,1015.4,36.7,0
"2020-01-29 07:40:53+00",15.2,17.2,,37.2,1803,-3396,2209,1015.39,36.7,0
"2020-01-29 07:50:53+00",13.8,16.8,,37.3,1482,-2961,1914,1015.38,36.7,0
"2020-01-29 07:55:53+00",13.6,15.6,,37.2,1593,-3209,2035,1015.44,36.7,0
"2020-01-29 08:00:53+00",10.4,12.4,,37.2,947,-1961,1309,1015.51,36.7,0
"2020-01-29 08:05:53+00",13.0,15.0,,37.1,1286,-2491,1663,1015.48,36.7,0
"2020-01-29 08:10:53+00",11.7,13.7,,37.1,1045,-2018,1384,1015.5,36.6,0
"2020-01-29 08:15:53+00",10.3,12.3,,37.1,1114,-2223,1459,1015.43,36.6,0
"2020-01-29 08:20:53+00",11.4,13.4,,37.1,865,-1733,1231,1015.46,36.6,0
"2020-01-29 08:25:53+00",11.4,13.4,,37,1042,-2057,1375,1015.36,36.6,0
"2020-01-29 08:30:53+00",11.8,13.8,,37,1172,-2319,1535,1015.41,36.5,0
"2020-01-29 08:35:53+00",13.3,14.3,,36.9,1494,-2881,1876,1015.33,36.5,0
"2020-01-29 08:40:53+00",12.1,14.1,,36.9,1317,-2569,1684,1015.29,36.4,0
"2020-01-29 08:45:53+00",11.8,13.8,,36.9,1263,-2449,1631,1015.4,36.4,0
"2020-01-29 08:50:53+00",14.1,15.1,,36.9,1719,-3314,2120,1015.3,36.4,0
"2020-01-29 08:55:53+00",13.8,15.8,,36.9,1229,-2292,1593,1015.39,36.4,0
"2020-01-29 09:00:53+00",14.4,17.4,,36.8,971,-1852,1339,1015.29,36.4,0
"2020-01-29 09:05:53+00",14.5,16.5,,36.8,1269,-2335,1646,1015.34,36.4,0
"2020-01-29 09:10:53+00",14.4,16.4,,36.7,1292,-2379,1651,1015.22,36.3,0
"2020-01-29 09:15:53+00",13.0,15.0,,36.7,1153,-2224,1535,1015.23,36.2,0
"2020-01-29 09:20:53+00",12.9,14.9,,36.7,1349,-2553,1708,1015.28,36.2,0
"2020-01-29 09:25:53+00",13.1,17.1,,36.7,1015,-1945,1375,1015.39,36.2,0
"2020-01-29 09:30:53+00",12.7,14.7,,36.8,1500,-2919,1898,1015.49,36.3,0
"2020-01-29 09:35:53+00",14.0,16.0,,36.8,1312,-2557,1705,1015.46,36.3,0
"2020-01-29 09:40:53+00",12.5,13.5,,36.9,1267,-2537,1670,1015.57,36.3,0
"2020-01-29 09:45:53+00",11.3,13.3,,36.8,1239,-2453,1611,1015.54,36.3,0
"2020-01-29 09:50:53+00",11.9,13.9,,36.8,1509,-2932,1885,1015.71,36.3,0
"2020-01-29 09:55:53+00",12.7,14.7,,36.7,1481,-2968,1889,1015.65,36.3,0
"2020-01-29 10:00:53+00",12.0,13.0,,36.7,1525,-2944,1878,1015.72,36.2,0
"2020-01-29 10:05:53+00",11.3,13.3,,36.7,1327,-2674,1705,1015.71,36.2,0
"2020-01-29 10:10:53+00",12.9,14.9,,36.6,1788,-3499,2187,1015.79,36.1,0
"2020-01-29 10:15:53+00",11.5,12.5,,36.7,1409,-2823,1780,1015.96,36.1,0
"2020-01-29 10:20:53+00",11.7,13.7,,36.7,1530,-3049,1910,1015.98,36.1,0
"2020-01-29 10:25:53+00",12.9,14.9,,36.7,1733,-3525,2138,1016.15,36.1,0
"2020-01-29 10:30:53+00",10.7,11.7,,36.6,1225,-2619,1638,1016.15,36.1,0
"2020-01-29 10:35:53+00",11.4,13.4,,36.6,984,-2170,1407,1016.2,36.1,0
"2020-01-29 10:40:53+00",11.7,13.7,,36.6,1406,-3014,1840,1016.27,36,0
"2020-01-29 10:45:53+00",11.4,13.4,,36.5,1607,-3350,2037,1016.35,36,0
"2020-01-29 10:50:53+00",12.2,13.2,,36.6,1451,-3121,1908,1016.38,36,0
"2020-01-29 10:55:53+00",10.4,11.4,,36.6,1148,-2426,1525,1016.45,36,0
"2020-01-29 11:00:53+00",14.4,15.4,,36.7,2059,-4063,2503,1016.47,36,0
"2020-01-29 11:05:53+00",11.4,13.4,,36.6,1001,-2078,1392,1016.57,36,0
"2020-01-29 11:10:53+00",10.0,12.0,,36.6,940,-1981,1300,1016.69,36,0
"2020-01-29 11:15:53+00",9.7,12.7,,36.6,534,-1323,920,1016.7,36,0
"2020-01-29 11:20:53+00",12.3,14.3,,36.6,1614,-3232,2000,1016.79,36.1,0
"2020-01-29 11:25:53+00",10.7,12.7,,36.6,1234,-2549,1621,1016.91,36,0
"2020-01-29 11:30:53+00",11.1,12.1,,36.6,1390,-2908,1790,1016.9,36,0
"2020-01-29 11:35:53+00",12.7,14.7,,36.6,1403,-2852,1827,1016.92,36,0
"2020-01-29 11:45:53+00",11.8,14.8,,36.6,868,-1840,1242,1017.04,36.1,0
"2020-01-29 11:50:53+00",12.8,13.8,,36.6,1472,-2920,1865,1017.12,36.1,0
"2020-01-29 11:55:53+00",12.5,13.5,,36.7,1453,-2814,1830,1017.2,36.1,0
"2020-01-29 12:00:53+00",12.5,13.5,,36.6,1387,-2734,1781,1017.28,36.1,0
"2020-01-29 12:05:53+00",12.6,14.6,,36.6,1562,-3093,1966,1017.35,36.1,0
"2020-01-29 12:10:53+00",9.9,10.9,,36.5,640,-1385,990,1017.45,36.1,0
"2020-01-29 12:15:53+00",11.6,12.6,,36.6,1618,-3194,1975,1017.48,36.1,0
"2020-01-29 12:20:53+00",9.1,10.1,,36.6,410,-1001,746,1017.66,36.1,0
"2020-01-29 12:25:53+00",11.0,12.0,,36.6,1476,-2940,1843,1017.72,36.1,0
"2020-01-29 12:30:53+00",11.3,12.3,,36.6,1690,-3391,2072,1017.65,36.1,0
"2020-01-29 12:35:53+00",11.8,14.8,,36.6,1430,-2936,1805,1017.85,36.1,0
"2020-01-29 12:40:53+00",10.6,12.6,,36.5,719,-1611,1109,1017.8,36.1,0
"2020-01-29 12:45:53+00",10.4,10.4,,36.5,1111,-2274,1460,1017.8,36.1,0
"2020-01-29 12:50:53+00",10.1,11.1,,36.5,800,-1629,1121,1017.95,36.1,0
"2020-01-29 12:55:53+00",9.0,10.0,,36.5,320,-602,555,1017.92,36.1,0
"2020-01-29 13:00:53+00",7.9,9.9,,36.5,263,-625,516,1018.05,36.1,0
"2020-01-29 13:05:53+00",8.0,10.0,,36.5,224,-534,496,1018.07,36.2,0
"2020-01-29 13:10:53+00",8.1,9.1,,36.5,289,-658,540,1018.09,36.2,0
"2020-01-29 13:15:53+00",8.9,9.9,,36.5,590,-1324,904,1018.12,36.2,0
"2020-01-29 13:20:53+00",9.9,10.9,,36.5,728,-1574,1064,1018.21,36.2,0
"2020-01-29 13:25:53+00",10.0,11.0,,36.5,883,-1828,1216,1018.28,36.3,0
"2020-01-29 13:30:53+00",12.1,14.1,,36.6,1384,-2689,1743,1018.32,36.4,0
"2020-01-29 13:35:53+00",10.7,12.7,,36.7,711,-1401,1044,1018.36,36.5,0
"2020-01-29 13:40:53+00",11.6,12.6,,36.8,1220,-2321,1546,1018.44,36.6,0
"2020-01-29 13:45:53+00",11.8,12.8,,36.8,760,-1460,1091,1018.48,36.7,0
"2020-01-29 13:50:53+00",12.0,15.0,,36.9,807,-1484,1116,1018.51,36.7,0
"2020-01-29 13:55:53+00",13.3,16.3,,36.9,607,-1165,964,1018.57,36.8,0
"2020-01-29 14:00:53+00",12.1,14.1,,37,1085,-2035,1413,1018.56,36.9,0
"2020-01-29 14:05:53+00",10.1,11.1,,36.9,769,-1535,1074,1018.59,37,0
"2020-01-29 14:10:53+00",11.3,12.3,,37,1309,-2538,1638,1018.67,37.1,0
"2020-01-29 14:15:53+00",11.5,12.5,,37,1141,-2184,1440,1018.62,37.1,0
"2020-01-29 14:20:53+00",9.8,10.8,,37,1040,-2109,1359,1018.69,37.2,0
"2020-01-29 14:25:53+00",10.4,12.4,,37.1,943,-1867,1256,1018.69,37.3,0
"2020-01-29 14:30:53+00",10.5,12.5,,37.1,974,-1868,1272,1018.74,37.4,0
"2020-01-29 14:35:53+00",10.2,15.2,,37.1,386,-767,638,1018.88,37.4,0
"2020-01-29 14:40:53+00",11.8,13.8,,37.1,415,-781,710,1018.86,37.4,0
"2020-01-29 14:45:53+00",8.5,10.5,,37.2,459,-989,761,1018.85,37.4,0
"2020-01-29 14:50:53+00",8.8,9.8,,37.1,319,-645,568,1018.86,37.4,0
"2020-01-29 14:55:53+00",14.0,16.0,,37.2,795,-1473,1154,1018.86,37.4,0
"2020-01-29 15:00:53+00",11.0,13.0,,37.1,81,-61,304,1018.92,37.4,0
"2020-01-29 15:05:53+00",9.8,10.8,,37.4,412,-699,667,1018.9,37.6,0
"2020-01-29 15:10:53+00",13.1,15.1,,37.3,-447,933,-182,1018.95,37.7,0
"2020-01-29 15:15:53+00",12.6,15.6,,37.3,-237,669,-44,1018.99,37.7,0
"2020-01-29 15:20:53+00",13.8,15.8,,37.2,-406,836,-161,1018.99,37.7,0
"2020-01-29 15:25:53+00",15.4,17.4,,37.3,-541,1154,-318,1019,37.8,0
"2020-01-29 15:30:53+00",14.1,16.1,,37.2,-1262,2521,-1036,1019,37.8,0
"2020-01-29 15:35:53+00",13.7,15.7,,37.3,-600,1212,-330,1018.99,37.8,0
"2020-01-29 15:40:53+00",17.7,18.7,,37.2,840,-1330,1178,1018.95,37.7,0
"2020-01-29 15:45:53+00",16.4,19.4,,37.3,-418,908,-117,1018.92,37.8,0
"2020-01-29 15:50:53+00",15.1,19.1,,37.5,122,-93,384,1018.82,38,0
"2020-01-29 15:55:53+00",14.2,17.2,,37.5,1184,-2220,1544,1018.8,38.2,0
"2020-01-29 16:00:53+00",12.5,14.5,,37.3,1493,-3044,1930,1018.75,38.2,8.1
"2020-01-29 16:05:53+00",14.8,16.8,,37.6,230,-277,520,1018.77,38.7,12.5
"2020-01-29 16:10:53+00",17.6,20.6,,37.8,1539,-2753,1933,1018.68,38.9,36.3
"2020-01-29 16:15:53+00",16.4,18.4,,37.9,1360,-2428,1692,1018.55,39.5,66.6
"2020-01-29 16:20:53+00",17.2,19.2,,37.8,2068,-3761,2427,1018.37,39.6,222.4
"2020-01-29 16:25:53+00",15.9,17.9,,37.9,870,-1415,1174,1018.34,39.9,79.4
"2020-01-29 16:35:53+00",16.1,19.1,,37.7,390,-643,745,1018.3,39.1,66.9
"2020-01-29 16:40:53+00",16.7,17.7,,38.3,-195,714,22,1018.31,39.8,16.6
"2020-01-29 16:45:53+00",19.2,22.2,,37.8,1457,-2383,1788,1018.32,39.3,0
"2020-01-29 16:50:53+00",19.2,23.2,,37.8,1164,-2080,1611,1018.28,38.9,23.1
"2020-01-29 16:55:53+00",18.0,19.0,,38.2,347,-346,657,1018.2,39.5,188.3
"2020-01-29 17:00:53+00",15.9,20.9,,38.2,-742,1633,-512,1018.06,40.2,207.8
"2020-01-29 17:05:53+00",18.7,20.7,,38.2,1187,-2018,1543,1017.88,40.6,177.2
"2020-01-29 17:10:53+00",15.5,18.5,,38.3,1043,-1837,1370,1017.79,40.7,178.6
"2020-01-29 17:15:53+00",19.0,22.0,,38.3,1314,-2280,1754,1017.68,40.7,175.9
"2020-01-29 17:20:53+00",17.9,19.9,,38.4,575,-946,996,1017.57,40.6,171.9
"2020-01-29 17:25:53+00",13.1,16.1,,38.4,165,-225,447,1017.44,40.8,167.7
"2020-01-29 17:30:53+00",18.1,21.1,,38.3,-106,340,247,1017.49,40.7,165.8
"2020-01-29 17:35:53+00",10.5,14.5,,38.6,-156,501,-4,1017.38,41.1,163.7
"2020-01-29 17:40:53+00",12.2,15.2,,39.3,588,-1061,958,1017.2,41.7,160.6
"2020-01-29 17:45:53+00",15.4,17.4,,38.8,1598,-3004,1992,1017.14,41.6,157.8
"2020-01-29 17:50:53+00",16.7,18.7,,38.9,-1764,3452,-1504,1017.27,41.8,156.7
"2020-01-29 17:55:53+00",18.8,20.8,,39.1,-729,1442,-338,1017.12,41.9,152.8
"2020-01-29 18:00:53+00",12.3,15.3,,39.4,987,-1843,1337,1017.13,41.8,149.3
"2020-01-29 18:05:53+00",17.3,20.3,,39.5,1329,-2667,1881,1017.05,41.8,143.6
"2020-01-29 18:10:53+00",12.5,14.5,,39.7,216,-284,490,1017.06,41.9,139.2
"2020-01-29 18:15:53+00",14.8,17.8,,39.8,-223,641,5,1017.01,42.1,138.2
"2020-01-29 18:20:53+00",13.9,15.9,,40,-235,877,-132,1016.92,42.4,133.1
"2020-01-29 18:25:53+00",17.1,19.1,,40.1,-545,999,-191,1016.95,42.8,129.7
"2020-01-29 18:30:53+00",11.5,13.5,,39.9,331,-518,591,1016.95,42.5,125.9
"2020-01-29 18:35:53+00",12.5,15.5,,40.5,-462,1316,-420,1016.96,42.9,120.8
"2020-01-29 18:40:53+00",13.4,15.4,,40.5,-974,2197,-868,1016.96,43.1,115.3
"2020-01-29 18:45:53+00",8.3,10.3,,40.4,-463,1119,-427,1016.93,43.4,111.8
"2020-01-29 18:50:53+00",12.2,16.2,,40.5,445,-893,792,1016.93,43.4,106
"2020-01-29 18:55:53+00",12.2,15.2,,40.4,116,-141,354,1016.94,43.3,102.1
"2020-01-29 19:00:53+00",14.3,17.3,,40.5,562,-1148,959,1016.92,43.2,93.4
"2020-01-29 19:05:53+00",12.1,14.1,,40.6,-116,603,-41,1017,43.3,93
"2020-01-29 19:10:53+00",13.5,15.5,,40.6,197,-304,495,1016.9,43.5,86.8
"2020-01-29 19:15:53+00",9.7,11.7,,40.8,-290,889,-245,1016.89,43.6,79.6
"2020-01-29 19:20:53+00",14.0,16.0,,40.8,-826,1923,-737,1016.97,43.9,73.3
"2020-01-29 19:25:53+00",11.3,13.3,,41.2,-314,1010,-271,1016.91,44.2,71.2
"2020-01-29 19:30:53+00",13.0,14.0,,41.2,-58,262,183,1016.92,44.3,63
"2020-01-29 19:35:53+00",12.0,13.0,,40.9,-293,890,-213,1016.92,43.9,58.7
"2020-01-29 19:40:53+00",12.2,15.2,,41.2,497,-850,806,1016.88,44,50.8
"2020-01-29 19:45:53+00",11.2,12.2,,40.8,-70,393,50,1016.94,43.8,40
"2020-01-29 19:50:53+00",9.8,11.8,,41.2,-257,850,-208,1016.82,44.2,37
"2020-01-29 19:55:53+00",11.1,15.1,,41.1,-339,1004,-281,1016.87,43.9,30.4
"2020-01-29 20:00:53+00",10.4,11.4,,41,-435,1267,-460,1016.92,44.1,20.7
"2020-01-29 20:05:53+00",6.6,7.6,,41.1,-685,1472,-653,1016.89,43.9,9.6
"2020-01-29 20:10:53+00",13.7,14.7,,41,-1416,3161,-1419,1016.85,44.1,4.6
"2020-01-29 20:15:53+00",9.3,10.3,,41,-483,1242,-474,1016.87,44,2.3
"2020-01-29 20:20:53+00",12.5,13.5,,41.4,-649,1594,-603,1016.94,44,0.8
"2020-01-29 20:25:53+00",14.7,16.7,,41.4,-1361,3064,-1354,1016.94,44.1,0.8
"2020-01-29 20:30:53+00",9.3,12.3,,41.4,-97,472,-8,1016.98,43.7,0
"2020-01-29 20:35:53+00",11.9,14.9,,41.6,-349,924,-223,1016.95,44.2,0
"2020-01-29 20:40:53+00",11.2,13.2,,41.6,-85,461,19,1016.87,44.3,0
"2020-01-29 20:45:53+00",12.0,14.0,,41.3,-761,1833,-738,1016.91,43.8,0
"2020-01-29 20:50:53+00",8.5,10.5,,41.3,67,-4,202,1016.9,43.8,0
"2020-01-29 20:55:53+00",8.1,9.1,,41.5,-200,721,-205,1016.89,43.8,0
"2020-01-29 21:00:53+00",11.0,12.0,,41.5,-611,1564,-606,1016.97,43.6,0
"2020-01-29 21:05:53+00",9.6,11.6,,41.4,-505,1446,-591,1017.08,43,0
"2020-01-29 21:10:53+00",10.5,11.5,,41.2,-217,789,-193,1017.12,42.6,0
"2020-01-29 21:15:53+00",10.1,12.1,,41.2,-548,1578,-648,1017.11,42.3,0
"2020-01-29 21:20:53+00",8.9,9.9,,41.2,75,180,134,1017.1,42.2,0
"2020-01-29 21:25:53+00",12.0,13.0,,41,-922,2119,-877,1017.14,42.3,0
"2020-01-29 21:30:53+00",9.1,11.1,,40.9,-384,1071,-377,1017.2,42.1,0
"2020-01-29 21:35:53+00",7.4,9.4,,40.8,-122,662,-202,1017.35,42,0
"2020-01-29 21:40:53+00",8.5,10.5,,40.8,-503,1294,-523,1017.36,41.4,0
"2020-01-29 21:45:53+00",8.4,10.4,,40.6,-184,722,-196,1017.43,41,0
"2020-01-29 21:50:53+00",9.7,10.7,,40.2,-806,1829,-792,1017.42,40.6,0
"2020-01-29 21:55:53+00",8.9,9.9,,40.2,-435,1143,-423,1017.62,40.2,0
"2020-01-29 22:00:53+00",7.3,8.3,,40,-110,512,-124,1017.73,39.8,0
"2020-01-29 22:05:53+00",6.9,7.9,,39.8,44,147,91,1017.76,39.4,0
"2020-01-29 22:10:53+00",8.7,9.7,,39.6,-53,412,-22,1017.89,39,0
"2020-01-29 22:15:53+00",7.5,8.5,,39.2,1,272,23,1018.11,38.3,0
"2020-01-29 22:20:53+00",7.4,8.4,,38.8,105,85,137,1018.21,37.6,0
"2020-01-29 22:25:53+00",8.3,10.3,,38.5,-33,373,-4,1018.43,36.8,0
"2020-01-29 22:30:53+00",8.5,8.5,,38.5,27,260,68,1018.42,36.2,0
"2020-01-29 22:35:53+00",8.9,9.9,,38.6,283,-203,342,1018.54,35.7,0
"2020-01-29 22:40:53+00",8.3,9.3,,38.6,185,-58,251,1018.78,35.2,0
"2020-01-29 22:45:53+00",8.1,9.1,,38.5,122,25,193,1018.93,34.8,0
"2020-01-29 22:50:53+00",7.9,8.9,,38.5,114,9,204,1018.9,34.5,0
"2020-01-29 22:55:53+00",7.7,7.7,,38.4,28,117,132,1019.04,34.2,0
"2020-01-29 23:00:53+00",7.8,8.8,,38.5,43,37,180,1019.16,34,0
"2020-01-29 23:05:53+00",7.6,7.6,,38.8,5,69,150,1019.35,33.9,0
"2020-01-29 23:10:53+00",6.8,6.8,,39,41,2,173,1019.6,33.9,0
"2020-01-29 23:15:53+00",6.5,6.5,,39,111,-155,250,1019.59,34,0
"2020-01-29 23:20:53+00",6.5,6.5,,38.9,106,-186,261,1019.72,34,0
"2020-01-29 23:25:53+00",6.6,6.6,,38.8,124,-241,293,1019.76,34.2,0
"2020-01-29 23:30:53+00",6.9,6.9,,38.7,212,-377,378,1019.9,34.2,0
"2020-01-29 23:35:53+00",6.7,6.7,,38.7,119,-293,316,1020.06,34.2,0
"2020-01-29 23:40:53+00",6.0,7.0,,38.8,242,-529,426,1020.23,34.2,0
"2020-01-29 23:45:53+00",5.1,6.1,,38.9,185,-444,357,1020.33,34.2,0
"2020-01-29 23:50:53+00",5.6,6.6,,38.9,147,-362,325,1020.4,34.2,0
"2020-01-29 23:55:53+00",5.7,5.7,,38.9,230,-536,418,1020.6,34.3,0
